Location: Milton Keynes
(52.0316°N, 0.7531°W)
Time: 00:52:33
(UTC+00:00)

BlueWalker 3 - Pass Details

Date: 19 December 2025
Orbit: 451 x 463 km, 53.2° (Epoch: 15 January)

Event Time Altitude Azimuth Distance (km) Brightness Sun altitude
Rises 06:48:22 0° 193° (SSW) 2,453 5.6 -11.3°
Reaches altitude 10° 06:51:20 10° 166° (SSE) 1,588 5.0 -10.8°
Maximum altitude 06:53:09 14° 135° (SE) 1,392 5.4 -10.6°
Drops below altitude 10° 06:54:59 10° 104° (ESE) 1,597 6.0 -10.3°
Sets 06:57:59 0° 78° (ENE) 2,479 6.4 -9.9°
